GW7302 Weather Reports


time (UTC)temp
C
wind
direction
speed
KPH
gust
KPH
rain 1hr
cm
rain 24hr
cm
rain mn
cm
humidity
%
barometer
mb
20260506181522 17 207 3.2 12.9 0.00 0.33 0.33 86 1009.4
20260506180025 16 227 4.8 16.1 0.00 0.33 0.33 85 1009.5
20260506174522 16 211 4.8 11.3 0.00 0.33 0.33 86 1009.6
20260506173023 16 190 3.2 14.5 0.00 0.33 0.33 86 1009.4
20260506171525 16 252 3.2 14.5 0.00 0.33 0.33 86 1009.5
20260506170035 16 185 3.2 19.3 0.00 0.33 0.33 86 1009.7
20260506164528 16 199 3.2 9.7 0.03 0.33 0.33 87 1009.7
20260506163024 16 215 3.2 12.9 0.08 0.33 0.33 87 1009.8
20260506161528 16 125 4.8 12.9 0.10 0.33 0.33 88 1009.3
20260506160026 16 174 3.2 8.0 0.15 0.33 0.33 87 1009.9
20260506154529 16 120 3.2 12.9 0.15 0.30 0.30 87 1010.6
20260506153026 16 179 3.2 12.9 0.13 0.25 0.25 87 1010.6
20260506151533 16 217 1.6 12.9 0.18 0.23 0.23 87 1010.9
20260506150011 16 141 0.0 14.5 0.18 0.18 0.18 86 1010.7
20260506144511 16 177 0.0 8.0 0.15 0.15 0.15 87 1010.7
20260506143019 16 144 1.6 9.7 0.13 0.13 0.13 86 1010.5
20260506141516 17 196 1.6 9.7 0.05 0.05 0.05 84 1010.5
20260506140022 17 190 1.6 9.7 0.00 0.00 0.00 81 1010.6
20260506134517 17 140 3.2 11.3 0.00 0.00 0.00 79 1010.5
20260506133035 18 240 1.6 6.4 0.00 0.00 0.00 79 1010.6
20260506131525 17 157 0.0 8.0 0.00 0.00 0.00 78 1010.7
20260506130022 18 155 1.6 8.0 0.00 0.00 0.00 77 1010.9
20260506124520 18 219 3.2 9.7 0.00 0.00 0.00 76 1010.9
20260506123024 18 248 3.2 8.0 0.00 0.00 0.00 74 1010.9
20260506121525 18 244 4.8 8.0 0.00 0.00 0.00 73 1010.7
20260506120034 18 186 4.8 9.7 0.00 0.00 0.00 72 1010.4
20260506114526 18 167 8.0 12.9 0.00 0.00 0.00 72 1010.6
20260506113026 18 225 0.0 9.7 0.00 0.00 0.00 72 1010.2
20260506111506 18 299 1.6 11.3 0.00 0.00 0.00 72 1010.2
20260506110008 18 165 1.6 16.1 0.00 0.00 0.00 71 1010.3
20260506104508 18 226 4.8 12.9 0.00 0.00 0.00 71 1009.9
20260506103008 18 246 0.0 12.9 0.00 0.00 0.00 71 1009.8
20260506101509 18 170 3.2 17.7 0.00 0.00 0.00 70 1009.8
20260506100023 18 229 4.8 12.9 0.00 0.00 0.00 70 1009.7
20260506094516 19 222 4.8 16.1 0.00 0.00 0.00 70 1009.9
20260506093019 19 133 1.6 17.7 0.00 0.00 0.00 69 1009.7
20260506091518 19 202 8.0 14.5 0.00 0.00 0.00 69 1009.8
20260506090020 19 123 6.4 14.5 0.00 0.00 0.00 68 1009.8
20260506084532 19 187 4.8 16.1 0.00 0.00 0.00 67 1009.8
20260506083023 20 219 1.6 11.3 0.00 0.00 0.00 66 1009.9
20260506081526 20 16 1.6 11.3 0.00 0.00 0.00 66 1009.9
20260506073026 20 204 6.4 22.5 0.00 0.00 0.00 63 1009.8
20260506071526 20 246 4.8 14.5 0.00 0.00 0.00 62 1010.0
20260506061526 20 127 4.8 17.7 0.00 0.00 0.00 57 1010.5
20260506044519 21 130 4.8 19.3 0.00 0.00 0.00 54 1011.1
20260506043020 21 75 0.0 9.7 0.00 0.00 0.00 1011.2
20260506041517 21 226 4.8 12.9 0.00 0.00 0.00 1011.3
20260506040034 21 164 1.6 14.5 0.00 0.00 0.00 1011.1
20260506034523 21 205 0.0 11.3 0.00 0.00 0.00 1011.1
20260506033022 21 211 3.2 8.0 0.00 0.00 0.00 1011.1
20260506031522 21 106 3.2 9.7 0.00 0.00 0.00 52 1011.0
20260506030024 21 159 1.6 11.3 0.00 0.00 0.00 1011.0
20260506024528 21 161 1.6 8.0 0.00 0.00 0.00 51 1010.9
20260506023028 21 111 1.6 12.9 0.00 0.00 0.00 50 1011.0
20260506021532 22 186 1.6 9.7 0.00 0.00 0.00 49 1011.0
20260506020004 21 230 6.4 17.7 0.00 0.00 0.00 49 1010.9
20260506014504 21 252 0.0 4.8 0.00 0.00 0.00 50 1010.8
20260506013006 22 194 3.2 12.9 0.00 0.00 0.00 46 1010.7
20260506011507 22 166 0.0 11.3 0.00 0.00 0.00 44 1010.5
20260506010021 23 147 1.6 11.3 0.00 0.00 0.00 44 1010.4
20260506004510 23 134 1.6 11.3 0.00 0.00 0.00 42 1010.2
20260506003011 24 241 4.8 17.7 0.00 0.00 0.00 41 1010.1
20260506001512 23 194 4.8 11.3 0.00 0.00 0.00 42 1010.0
20260506000013 24 177 3.2 12.9 0.00 0.00 0.00 40 1009.7
20260505234531 25 163 4.8 19.3 0.00 0.00 0.00 40 1009.7
20260505233014 25 229 3.2 17.7 0.00 0.00 0.00 40 1009.4
20260505231517 25 178 9.7 22.5 0.00 0.00 0.00 39 1009.6
20260505230020 25 211 12.9 20.9 0.00 0.00 0.00 39 1009.6
20260505224522 25 192 4.8 20.9 0.00 0.00 0.00 40 1009.5
20260505223022 26 234 8.0 22.5 0.00 0.00 0.00 39 1009.5
20260505221524 26 250 9.7 20.9 0.00 0.00 0.00 38 1009.5
20260505220026 26 242 11.3 38.6 0.00 0.00 0.00 38 1009.5
20260505214551 26 222 8.0 27.4 0.00 0.00 0.00 38 1009.2
20260505213026 26 192 11.3 27.4 0.00 0.00 0.00 38 1009.4
20260505211524 27 221 9.7 25.7 0.00 0.00 0.00 37 1009.0
20260505210025 27 194 8.0 25.7 0.00 0.00 0.00 38 1009.1
20260505204508 27 126 9.7 22.5 0.00 0.00 0.00 36 1009.2
20260505203016 26 209 9.7 22.5 0.00 0.00 0.00 40 1009.3
20260505201509 26 217 11.3 32.2 0.00 0.00 0.00 40 1009.4
20260505200009 27 153 11.3 27.4 0.00 0.00 0.00 38 1009.4
20260505194514 27 134 11.3 25.7 0.00 0.00 0.00 37 1009.5
20260505193013 27 211 8.0 27.4 0.00 0.00 0.00 36 1009.6
20260505191515 27 182 16.1 37.0 0.00 0.00 0.00 37 1009.7
20260505190015 27 204 9.7 33.8 0.00 0.00 0.00 38 1009.8
20260505184514 27 194 6.4 24.1 0.00 0.00 0.00 38 1010.0
20260505183018 27 304 9.7 29.0 0.00 0.00 0.00 38 1010.1